Flight Track Log - Related Links

Times and Time Zones

All times are in EDT time to prevent confusion due to time zone crossing. See the EGF4086 flight status page for this flight to view local times or setup timezone preferences in your user account.

Time Position Orientation Groundspeed Altitude Reporting Facility
EDT Latitude Longitude Course Direction KTS MPH feet Rate Location/Type
Mon 03:22:45 PM 43.0975 -77.6972 281° West 156 180 1,200  Level Cleveland Center
Mon 03:23:35 PM 43.0733 -77.7353 229° Southwest 193 222 2,900 2,419 Climbing Cleveland Center
Mon 03:24:49 PM 43.0881 -77.8286 282° West 221 254 6,200 2,731 Climbing Cleveland Center
Mon 03:25:00 PM 43.1500 -78.0334 278° West  Level FlightAware Approximate
Mon 03:25:49 PM 43.1047 -77.9131 285° West 226 260 9,000  Level Cleveland Center
Mon 03:26:00 PM 43.1623 -78.1565 278° West  Level FlightAware Approximate
Mon 03:26:49 PM 43.1214 -78.0061 284° West 241 277 10,300  Level Cleveland Center
Mon 03:27:00 PM 43.1780 -78.2788 281° West  Level FlightAware Approximate
Mon 03:27:49 PM 43.1428 -78.1219 284° West 277 319 11,700  Level Cleveland Center
Mon 03:28:00 PM 43.1954 -78.4007 281° West  Level FlightAware Approximate
Mon 03:28:49 PM 43.1661 -78.2464 284° West 317 365 13,100  Level Cleveland Center
Mon 03:29:49 PM 43.1894 -78.3708 284° West 338 389 14,600 1,500 Climbing Cleveland Center
Mon 03:30:49 PM 43.2106 -78.5067 282° West 352 405 16,100 1,450 Climbing Cleveland Center
Mon 03:31:49 PM 43.2047 -78.6408 267° West 357 411 17,500 1,200 Climbing Cleveland Center
Mon 03:32:49 PM 43.1944 -78.7836 264° West 362 417 18,500 1,125 Climbing Cleveland Center
Mon 03:33:41 PM 43.1833 -78.9000 263° West 370 426 19,600 1,125 Climbing Toronto Center
Mon 03:34:41 PM 43.1667 -79.0333 260° West 380 437 20,600 950 Climbing Toronto Center
Mon 03:35:41 PM 43.1667 -79.2000 270° West 390 449 21,500 950 Climbing Toronto Center
Mon 03:36:41 PM 43.1500 -79.3667 262° West 400 460 22,500 950 Climbing Toronto Center
Mon 03:37:41 PM 43.1333 -79.5000 260° West 400 460 23,400 900 Climbing Toronto Center
Mon 03:38:41 PM 43.1333 -79.6500 270° West 410 472 24,300 950 Climbing Toronto Center
Mon 03:39:41 PM 43.1167 -79.8167 262° West 410 472 25,300 950 Climbing Toronto Center
Mon 03:40:41 PM 43.1167 -79.9500 270° West 410 472 26,200 950 Climbing Toronto Center
Mon 03:41:41 PM 43.1000 -80.1167 262° West 400 460 27,200 950 Climbing Toronto Center
Mon 03:42:41 PM 43.1000 -80.2500 270° West 400 460 28,100 950 Climbing Toronto Center
Mon 03:43:41 PM 43.0833 -80.4167 262° West 400 460 29,100 1,000 Climbing Toronto Center
Mon 03:44:41 PM 43.0667 -80.5667 261° West 400 460 30,100 950 Climbing Toronto Center
Mon 03:45:41 PM 43.0667 -80.7000 270° West 400 460 31,000 900 Climbing Toronto Center
Mon 03:46:41 PM 43.0333 -80.8667 255° West 400 460 31,900 500 Climbing Toronto Center
Mon 03:47:41 PM 43.0333 -81.0167 270° West 410 472 32,000 50 Climbing Toronto Center
Mon 03:48:41 PM 43.0167 -81.1833 262° West 410 472 32,000  Level Toronto Center
Mon 03:49:41 PM 43.0167 -81.3500 270° West 410 472 32,000  Level Toronto Center
Mon 03:50:41 PM 43.0167 -81.4833 270° West 410 472 32,000  Level Toronto Center
Mon 03:51:41 PM 43.0167 -81.6333 270° West 410 472 32,000  Level Toronto Center
Mon 03:52:41 PM 43.0167 -81.8000 270° West 410 472 32,000  Level Toronto Center
Mon 03:53:41 PM 43.0000 -81.9667 262° West 420 483 32,000  Level Toronto Center
Mon 03:54:41 PM 43.0000 -82.1167 270° West 420 483 32,000  Level Toronto Center
Mon 03:55:41 PM 43.0000 -82.2833 270° West 410 472 32,000  Level Toronto Center
Mon 03:56:41 PM 43.0000 -82.4333 270° West 410 472 32,000  Level Toronto Center
Mon 03:57:41 PM 43.0000 -82.6000 270° West 420 483 32,000  Level Toronto Center
Mon 03:58:41 PM 42.9833 -82.7500 261° West 420 483 32,000  Level Toronto Center
Mon 03:59:41 PM 42.9833 -82.9167 270° West 420 483 32,000  Level Toronto Center
Mon 04:00:41 PM 42.9833 -83.0667 270° West 420 483 32,000  Level Toronto Center
Mon 04:01:49 PM 42.9839 -83.2481 270° West 419 482 32,000  Level Cleveland Center
Mon 04:02:49 PM 42.9800 -83.4042 268° West 419 482 32,000  Level Cleveland Center
Mon 04:03:49 PM 42.9739 -83.5656 267° West 419 482 32,000  Level Cleveland Center
Mon 04:04:49 PM 42.9656 -83.7242 266° West 424 488 32,000  Level Cleveland Center
Mon 04:05:49 PM 42.9528 -83.8825 264° West 419 482 32,000  Level Cleveland Center
Mon 04:06:49 PM 42.9378 -84.0375 263° West 424 488 32,000  Level Cleveland Center
Mon 04:07:49 PM 42.9225 -84.1956 263° West 424 488 32,000  Level Cleveland Center
Mon 04:09:08 PM 42.9028 -84.3903 262° West 420 483 32,000  Level Chicago Center
Mon 04:10:09 PM 42.8850 -84.5772 263° West 416 479 32,000  Level Chicago Center
Mon 04:11:11 PM 42.8683 -84.7328 262° West 416 479 32,000  Level Chicago Center
Mon 04:12:13 PM 42.8531 -84.8883 262° West 415 478 32,000  Level Chicago Center
Mon 04:13:15 PM 42.8361 -85.0425 262° West 414 476 32,000 -816 Level Chicago Center
Mon 04:14:18 PM 42.8200 -85.1942 262° West 406 467 30,300 -1,824 Descending Chicago Center
Mon 04:15:20 PM 42.8031 -85.3497 262° West 412 474 28,200 -1,984 Descending Chicago Center
Mon 04:16:22 PM 42.7856 -85.5053 261° West 416 479 26,200 -1,935 Descending Chicago Center
Mon 04:17:24 PM 42.7508 -85.6942 256° West 425 489 24,200 -1,742 Descending Chicago Center
Mon 04:18:26 PM 42.7231 -85.8503 256° West 423 487 22,600 -1,403 Descending Chicago Center
Mon 04:19:28 PM 42.6950 -86.0031 256° West 416 479 21,300 -1,161 Descending Chicago Center
Mon 04:20:30 PM 42.6689 -86.1500 256° West 401 461 20,200 -1,161 Descending Chicago Center
Mon 04:21:32 PM 42.6419 -86.2942 256° West 393 452 18,900 -1,500 Descending Chicago Center
Mon 04:22:34 PM 42.6150 -86.4328 255° West 383 441 17,100 -1,790 Descending Chicago Center
Mon 04:23:36 PM 42.5889 -86.5689 255° West 374 430 15,200 -1,790 Descending Chicago Center
Mon 04:24:38 PM 42.5600 -86.7256 256° West 359 413 13,400 -1,645 Descending Chicago Center
Mon 04:25:40 PM 42.5278 -86.8511 251° West 354 407 11,800 -1,306 Descending Chicago Center
Mon 04:26:42 PM 42.4928 -86.9731 249° West 349 402 10,700 -871 Descending Chicago Center
Mon 04:27:44 PM 42.4597 -87.0925 249° West 338 389 10,000 -677 Descending Chicago Center
Mon 04:28:46 PM 42.4294 -87.2067 250° West 321 369 9,300 -484 Descending Chicago Center
Mon 04:29:48 PM 42.4028 -87.3011 249° West 275 316 9,000 -532 Descending Chicago Center
Mon 04:30:50 PM 42.3728 -87.4108 250° West 269 310 8,200 -629 Descending Chicago Center
Mon 04:31:52 PM 42.3489 -87.5058 251° West 269 310 7,700 -532 Descending Chicago Center
Mon 04:32:54 PM 42.2956 -87.5714 222° Southwest 264 304 7,100 -629 Descending Chicago Center
Mon 04:33:56 PM 42.2383 -87.6292 217° Southwest 260 299 6,400 -1,161 Descending Chicago Center
Mon 04:34:58 PM 42.1733 -87.7019 220° Southwest 255 293 4,700 -1,210 Descending Chicago Center
Mon 04:36:00 PM 42.1242 -87.7581 220° Southwest 241 277 3,900 -900 Descending Chicago Center
Mon 04:36:38 PM 42.1000 -87.7833 218° Southwest 211 243 3,200 -1,105 Descending Chicago TRACON

Login

Don't have an account? Register now (free) for customized features, flight alerts, and more!